Regional Weather Roundup
Issued by NWS

Home | Current Version | Previous Version | Text Only | Print | Product List | Glossary On
Versions: 1 2 3 4 5 6 7 8 9 10 11 12 13 14 15 16 17 18 19 20 21 22 23 24 25 26 27
000
ASUS44 KBMX 262210
RWRAL

ALABAMA REGIONAL WEATHER ROUNDUP
NATIONAL WEATHER SERVICE BIRMINGHAM AL
500 PM CDT TUE JUL 26 2016

NOTE: "FAIR" INDICATES FEW OR NO CLOUDS BELOW 12,000 FEET
WITH NO SIGNIFICANT WEATHER AND/OR OBSTRUCTIONS TO VISIBILITY.

THE REMARK "TC" DENOTES TEMPERATURE IN DEGREES CELSIUS.

ALZ001>011-014-016>018-020-262300-
NORTH ALABAMA

CITY           SKY/WX    TMP DP  RH WIND       PRES   REMARKS
MUSCLE SHOALS  SUNNY     96  67  38 S13       29.93F HX 100
HUNTSVILLE     MOSUNNY   97  65  34 SE13      29.94F HX  99
DECATUR        SUNNY     94  72  48 S8        29.94F HX 102
HALEYVILLE     NOT AVBL
GADSDEN        SUNNY     95  68  41 S6          N/A  HX  99
$$

ALZ012-013-022-023-030>036-040>044-262300-
WEST CENTRAL ALABAMA

CITY           SKY/WX    TMP DP  RH WIND       PRES   REMARKS
TUSCALOOSA     LGT RAIN  86  73  65 S16G24    29.94R HX  93
$$

ALZ015-024>027-033>036-040>044-262300-
CENTRAL ALABAMA

CITY           SKY/WX    TMP DP  RH WIND       PRES   REMARKS
BIRMINGHAM     MOSUNNY   93  68  43 E8        29.98F HX  97
MONTGOMERY     CLOUDY    89  75  63 SE10      29.96F HX  99
SHELBY CO ARPT CLOUDY    87  72  60 S10G18    29.97S HX  93
MAXWELL AFB    MOSUNNY   88  75  66 S12       29.96F HX  97
GREENVILLE     TSTM      83  74  74 SW12G23   29.99R
$$

ALZ019-021-028-029-037-038-045>048-262300-
EAST CENTRAL ALABAMA

CITY           SKY/WX    TMP DP  RH WIND       PRES   REMARKS
ANNISTON       SUNNY     93  67  42 SE7       29.97S HX  96
ALEXANDER CITY MOSUNNY   89  79  71 SW12      29.99R HX 104
AUBURN         CLOUDY    82  74  76 S17G31    30.01R
$$

ALZ051>064-262300-
SOUTHWEST ALABAMA

CITY           SKY/WX    TMP DP  RH WIND       PRES   REMARKS
MOBILE         PTSUNNY   82  78  88 S8        29.95S HX  91
BROOKLEY FIELD LGT RAIN  83  76  79 VRB6      29.95S HX  91
EVERGREEN      LGT RAIN  79  75  87 SE7       29.98S
$$

ALZ049-050-065>069-262300-
SOUTHEAST ALABAMA

CITY           SKY/WX    TMP DP  RH WIND       PRES   REMARKS
DOTHAN         LGT RAIN  79  74  84 S10       30.05R
OZARK          LGT RAIN  81  77  89 S10       30.01F
TROY           LGT RAIN  76  74  93 CALM      30.00F
EUFAULA        CLOUDY    85  75  72 S7        30.00S THUNDER HX  93
$$




USA.gov is the U.S. government's official web portal to all federal, state and local government web resources and services.